Regional Weather Roundup
Issued by NWS

Home | Current Version | Previous Version | Graphics & Text | Print | Product List | Glossary On
Versions: 1 2 3 4 5 6 7 8 9 10 11 12 13 14 15 16 17 18 19 20 21 22 23 24 25 26 27 28 29 30 31 32 33 34 35 36 37 38 39 40 41 42 43 44 45 46 47 48 49 50
000
ASUS45 KPSR 110610
RWRAZ

ARIZONA REGIONAL HOURLY WEATHER ROUNDUP
NATIONAL WEATHER SERVICE PHOENIX AZ
1100 PM MST THU JUL 10 2014

NOTE: FAIR INDICATES FEW OR NO CLOUDS BELOW 12,000 FEET WITH NO
SIGNIFICANT WEATHER AND/OR OBSTRUCTIONS TO VISIBILITY.

AZZ001>003-036-110700-
NORTHWEST ARIZONA

CITY           SKY/WX    TMP DP  RH WIND       PRES   REMARKS
BULLHEAD CITY  CLEAR     86 N/A N/A N16       29.82S
KINGMAN        CLEAR     68  64  87 N7        30.03S
6HR MIN TEMP:  68; 6HR MAX TEMP:  74; 6HR PCP: TRACE;

$$

AZZ004>008-015-016-018-110700-
NORTH CENTRAL ARIZONA

CITY           SKY/WX    TMP DP  RH WIND       PRES   REMARKS
GRAND CANYON   CLEAR     58  57  97 CALM      30.25F
6HR MIN TEMP:  58; 6HR MAX TEMP:  67; 6HR PCP:  0.02;

WILLIAMS         N/A     57  55  94 S3        30.32F
PRESCOTT       PTCLDY    65  61  87 S7        30.15F
6HR MIN TEMP:  65; 6HR MAX TEMP:  73; 6HR PCP:  0.05;

FLAGSTAFF      PTCLDY    57  50  77 CALM      30.29S
6HR MIN TEMP:  57; 6HR MAX TEMP:  72;

PAYSON         PTCLDY    72  54  53 CALM      30.18R
PAGE           PTCLDY    79  50  36 CALM      30.06S
6HR MIN TEMP:  79; 6HR MAX TEMP:  86; 6HR PCP: TRACE;

$$

AZZ009>014-017-110700-
NORTHEAST ARIZONA

CITY           SKY/WX    TMP DP  RH WIND       PRES   REMARKS
WINSLOW        PTCLDY    73  56  54 NW5       30.15S
6HR MIN TEMP:  73; 6HR MAX TEMP:  90;

SAINT JOHNS    PTCLDY    69  55  60 W7        30.20R
6HR MIN TEMP:  69; 6HR MAX TEMP:  81;

WINDOW ROCK    MOCLDY    65  54  67 CALM      30.27S
6HR MIN TEMP:  65; 6HR MAX TEMP:  88; 6HR PCP:  0.01;

SHOW LOW       PTCLDY    64  54  68 CALM      30.29R
$$

AZZ023-110700-
GREATER PHOENIX AREA

CITY           SKY/WX    TMP DP  RH WIND       PRES   REMARKS
PHOENIX        MOCLDY    99  57  24 W10       29.82R
6HR MIN TEMP:  98; 6HR MAX TEMP: 103;

BUCKEYE          N/A     91  59  33 W5        29.84R
LUKE AFB       NOT AVBL
6HR MIN TEMP:  93; 6HR MAX TEMP: 103;

DEER VALLEY    MOCLDY    93  58  30 N8        29.84S
6HR MIN TEMP:  93; 6HR MAX TEMP: 100;

SCOTTSDALE     MOCLDY    94  59  31 CALM      29.86S
6HR MIN TEMP:  94; 6HR MAX TEMP: 101;

MESA-GATEWAY   PTCLDY    93  59  31 SW9       29.87S
$$

AZZ027-028-110700-
SOUTHWEST MARICOPA COUNTY AND PINAL COUNTY

CITY           SKY/WX    TMP DP  RH WIND       PRES   REMARKS
CASA GRANDE    MOCLDY    88  64  45 CALM      29.88S
6HR MIN TEMP:  88; 6HR MAX TEMP: 100;

GILA BEND      MOCLDY    91  59  33 S5        29.85R
$$

AZZ503-504-507>509-110700-
SOUTHEAST ARIZONA

CITY           SKY/WX    TMP DP  RH WIND       PRES   REMARKS
TUCSON         MOCLDY    85  57  38 S8        30.00R
6HR MIN TEMP:  85; 6HR MAX TEMP:  95;

DAVIS-MONTHAN  PTCLDY    84  59  43 SW7       30.00R
6HR MIN TEMP:  84; 6HR MAX TEMP:  94;

NOGALES        LGT RAIN  75  57  53 E15       30.10S
6HR MIN TEMP:  75; 6HR MAX TEMP:  90; 6HR PCP: TRACE;

SIERRA VISTA   TSTM      68  55  64 SW16G26   30.16F
                                      6HR PCP:  0.63;

DOUGLAS        MOCLDY    74  57  55 SW12      30.11R
6HR MIN TEMP:  74; 6HR MAX TEMP:  90; 6HR PCP: TRACE;

SAFFORD        PTCLDY    86  56  35 NW13      29.96S
6HR MIN TEMP:  86; 6HR MAX TEMP:  97;

$$

AZZ020-021-025-026-031-110700-
SOUTHWEST ARIZONA

CITY           SKY/WX    TMP DP  RH WIND       PRES   REMARKS
YUMA           CLEAR     93  56  28 SW7       29.81R
6HR MIN TEMP:  93; 6HR MAX TEMP: 107;

$$

CAZ031-033-041-043-047-048-061-110700-
SOUTHERN CALIFORNIA

CITY           SKY/WX    TMP DP  RH WIND       PRES   REMARKS
DOWNTOWN L.A.  CLOUDY    67  61  81 CALM      29.94F
6HR MIN TEMP:  67; 6HR MAX TEMP:  77;

L.A. AIRPORT   PTCLDY    67  61  81 SW10      29.95S
6HR MIN TEMP:  67; 6HR MAX TEMP:  73;

SAN DIEGO      PTCLDY    71  61  70 NW6       29.97S
6HR MIN TEMP:  70; 6HR MAX TEMP:  76;

BURBANK        CLEAR     68  60  75 E6        29.94S
6HR MIN TEMP:  68; 6HR MAX TEMP:  82;

ONTARIO        CLEAR     70  58  65 W10       29.96R
6HR MIN TEMP:  70; 6HR MAX TEMP:  89;

RIVERSIDE      CLEAR     70  60  70 W5        29.96R
6HR MIN TEMP:  70; 6HR MAX TEMP:  88;

PALM SPRINGS   CLEAR     92  46  20 NW14      29.80S
6HR MIN TEMP:  92; 6HR MAX TEMP: 107;

EL CENTRO NAS  PTCLDY    90  44  20 W15       29.78R
6HR MIN TEMP:  89; 6HR MAX TEMP: 108;

IMPERIAL       CLEAR     87  46  24 W15       29.77R
6HR MIN TEMP:  86; 6HR MAX TEMP: 106;

BLYTHE         CLEAR     93  39  15 SW7       29.78R
6HR MIN TEMP:  93; 6HR MAX TEMP: 107;

NEEDLES        CLEAR     87  62  43 N13       29.82S
6HR MIN TEMP:  87; 6HR MAX TEMP: 104;

$$

NVZ020-UTZ003-110700-
SOUTHERN NEVADA-UTAH

CITY           SKY/WX    TMP DP  RH WIND       PRES   REMARKS
LAS VEGAS      CLOUDY    81  59  47 S6        29.91F
6HR MIN TEMP:  81; 6HR MAX TEMP:  89;

SALT LAKE CITY CLOUDY    70  59  68 S12       30.07F
6HR MIN TEMP:  69; 6HR MAX TEMP:  92; 6HR PCP: TRACE;

$$

NMZ009-TXZ055-110700-
NEW MEXICO-WEST TEXAS

CITY           SKY/WX    TMP DP  RH WIND       PRES   REMARKS
ALBUQUERQUE    MOCLDY    75  50  41 CALM      30.16R
6HR MIN TEMP:  74; 6HR MAX TEMP:  81; 6HR PCP: TRACE;

EL PASO        PTCLDY    85  49  28 E12       30.01R
6HR MIN TEMP:  83; 6HR MAX TEMP:  94; 6HR PCP: TRACE;

$$


........................KEY........................
SKY/WX - SKY CONDITION/WEATHER
TMP    - TEMPERATURE IN FAHRENHEIT
DP     - DEW POINT IN FAHRENHEIT
RH     - RELATIVE HUMIDITY IN PERCENT
WIND   - DIRECTION AND SPEED IN MILES PER HOUR (MPH)
VRB    - VARIABLE WIND DIRECTION
PRES   - MEAN SEA LEVEL PRESSURE IN INCHES OF MERCURY
         F - FALLING PRESSURE   R - RISING PRESSURE
         S - STEADY PRESSURE
VSB    - VISIBILITY IN MILES
HX     - HEAT INDEX IN FAHRENHEIT
WCI    - WIND CHILL INDEX IN FAHRENHEIT
TC     - TEMPERATURE IN CELSIUS WHICH IS ALSO KNOWN AS
         TEMPERATURE IN CENTIGRADE
AFB    - AIR FORCE BASE
         LUKE AFB IS LUKE AIR FORCE BASE
         DAVIS-MONTHAN IS DAVIS-MONTHAN AIR FORCE BASE
NAS    - NAVAL AIR STATION
         EL CENTRO NAS IS EL CENTRO NAVAL AIR STATION
N/A    - NOT AVAILABLE



USA.gov is the U.S. government's official web portal to all federal, state and local government web resources and services.